DateTimeUTC,F1_A11,F1_S11,BsB_S11,BsG_S11,BsR_S11,BbsB_S11,BbsG_S11,BbsR_S11,BaB_A11,BaG_A11,BaR_A11,Tu_S11,T_S11,Uu_S11,U_S11,P_S11,T1_A11
2021-02-14T22:00:00Z,00000200,21000000,,,,,,,-000.06,-000.68,0000.12,16.7,23.3,,00.0,0646.4,31.0
2021-02-14T22:01:00Z,00000200,21000000,,,,,,,-000.03,0000.12,-000.25,16.6,23.3,,00.0,0646.4,31.0
2021-02-14T22:02:00Z,00000200,21000000,,,,,,,0000.16,0000.29,0000.20,16.6,23.3,,00.0,0646.4,31.0
2021-02-14T22:03:00Z,00000200,61000000,,,,,,,0000.25,0000.33,0000.33,16.6,23.3,,00.0,0646.4,31.0
2021-02-14T22:04:00Z,00000200,41000000,-000.34,0000.08,0000.04,-000.27,0000.11,-000.36,0000.33,-000.05,-000.17,16.6,23.0,,00.0,0647.2,30.9
2021-02-14T22:05:00Z,00000200,01000000,0000.34,0000.59,0000.15,-000.41,0000.09,0000.02,0000.37,0000.34,0000.63,16.6,22.9,,00.0,0647.3,30.9
2021-02-14T22:06:00Z,00000200,01000000,0000.32,0000.21,0000.00,-000.19,0000.09,-000.24,0000.39,0000.41,0000.25,16.7,22.9,,00.0,0647.3,30.9
2021-02-14T22:07:00Z,00000200,01000000,0000.64,0000.31,0000.29,-000.11,0000.12,0000.07,0000.18,0000.47,0000.43,16.8,23.0,,00.0,0647.3,31.0
2021-02-14T22:08:00Z,00000200,01000000,0000.29,0000.60,0000.31,0000.04,-000.04,-000.01,0000.25,0000.21,-000.15,16.8,23.0,,00.0,0647.3,31.0
2021-02-14T22:09:00Z,00000200,01000000,0000.63,0000.28,0000.19,0000.03,0000.10,-000.11,0000.62,0000.34,0000.44,16.9,23.0,,00.0,0647.3,31.0
2021-02-14T22:10:00Z,00000200,01000000,-000.28,0000.33,0000.47,0000.06,0000.33,0000.02,0000.13,0000.36,0000.24,17.0,23.1,,00.0,0647.3,31.0
2021-02-14T22:11:00Z,00000200,01000000,0000.86,0000.34,0000.43,-000.57,0000.25,-000.13,0000.14,0000.12,0000.05,17.1,23.1,,00.0,0647.3,31.0
2021-02-14T22:12:00Z,00000200,01000000,0000.29,0000.50,0000.05,-000.21,0000.08,-000.09,0000.32,0000.03,0000.03,17.1,23.1,,00.0,0647.3,31.0
2021-02-14T22:13:00Z,00000200,01000000,0000.26,0000.61,0000.26,-000.23,-000.09,-000.01,-000.21,0000.02,-000.12,17.1,23.1,,00.0,0647.3,31.0
2021-02-14T22:14:00Z,00000200,01000000,0000.46,0000.10,-000.19,-000.09,0000.19,-000.14,0000.03,0000.01,0000.42,17.0,23.1,,00.0,0647.2,31.0
2021-02-14T22:15:00Z,00000200,01000000,-000.23,0000.45,0000.31,-000.15,-000.19,0000.08,0000.20,0000.24,-000.17,17.0,23.1,,00.0,0647.2,31.0
2021-02-14T22:16:00Z,00000200,01000000,-000.40,0000.44,0000.23,-000.15,-000.06,0000.24,0000.22,0000.22,0000.18,16.9,23.1,,00.0,0647.2,31.0
2021-02-14T22:17:00Z,00000200,01000000,0000.30,0000.54,0000.17,0000.12,0000.12,-000.01,0000.37,0000.01,-000.35,16.9,23.0,,00.0,0647.3,31.0
2021-02-14T22:18:00Z,00000200,01000000,0000.68,0000.52,0000.12,0000.09,0000.15,-000.09,-000.12,0000.10,0000.26,16.8,23.0,,00.0,0647.3,31.0
2021-02-14T22:19:00Z,00000200,01000000,0000.54,0000.16,0000.45,-000.18,0000.14,-000.09,0000.20,0000.03,0000.18,16.8,23.0,,00.0,0647.2,31.0
2021-02-14T22:20:00Z,00000200,01000000,-000.21,0000.23,0000.27,-000.47,0000.08,0000.01,0000.25,0000.43,0000.17,16.8,23.0,,00.0,0647.2,30.9
2021-02-14T22:21:00Z,00000200,01000000,0000.91,0000.53,0000.10,-000.09,0000.01,-000.41,0000.52,0000.44,0000.49,16.8,23.0,,00.0,0647.1,31.0
2021-02-14T22:22:00Z,00000200,01000000,0000.56,0000.34,-000.14,-000.13,0000.16,-000.17,-000.18,-000.15,-000.13,16.9,23.0,,00.0,0647.1,31.0
2021-02-14T22:23:00Z,00000200,01000000,-000.01,0000.28,0000.31,-000.26,0000.43,0000.13,0000.47,0000.54,0000.62,17.0,23.0,,00.0,0647.2,31.0
2021-02-14T22:24:00Z,00000200,01000000,0000.30,0000.45,0000.12,0000.45,-000.13,0000.07,0000.17,0000.26,0000.07,17.1,23.1,,00.0,0647.2,31.0
2021-02-14T22:25:00Z,00000200,01000000,0000.50,0000.48,0000.01,-000.30,0000.03,-000.34,0000.20,-000.01,0000.31,17.1,23.1,,00.0,0647.2,31.0
2021-02-14T22:26:00Z,00000200,01000000,0000.53,0000.46,0000.19,0000.25,0000.23,0000.09,0000.27,0000.01,-000.29,17.2,23.2,,00.0,0647.1,31.0
2021-02-14T22:27:00Z,00000200,01000000,0000.08,0000.34,0000.52,0000.37,0000.11,-000.11,-000.29,0000.03,0000.14,17.2,23.2,,00.0,0647.2,31.0
2021-02-14T22:28:00Z,00000200,01000000,0000.14,0000.17,0000.06,0000.12,0000.05,0000.02,0000.21,0000.20,0000.18,17.2,23.2,,00.0,0647.2,31.0
2021-02-14T22:29:00Z,00000200,01000000,0000.17,0000.61,0000.17,0000.23,0000.33,0000.24,0000.26,-000.08,-000.10,17.1,23.1,,00.0,0647.2,31.0
2021-02-14T22:30:00Z,00000200,01000000,0000.26,0000.33,0000.35,0000.62,0000.05,0000.18,-000.45,0000.33,-000.11,17.1,23.1,,00.0,0647.2,31.0
2021-02-14T22:31:00Z,00000200,01000000,0000.33,0000.41,0000.24,0000.39,0000.08,-000.01,0000.40,-000.15,-000.05,17.0,23.1,,00.0,0647.2,31.0
2021-02-14T22:32:00Z,00000200,01000000,0000.20,0000.29,0000.34,-000.06,0000.45,-000.33,0000.17,0000.12,0000.28,17.0,23.1,,00.0,0647.2,31.0
2021-02-14T22:33:00Z,00000200,01000000,0000.14,0000.42,0000.06,0000.00,0000.08,0000.22,0000.17,0000.24,0000.11,16.9,23.0,,00.0,0647.1,31.0
2021-02-14T22:34:00Z,00000200,01000000,-000.48,0000.51,0000.26,0000.15,0000.20,-000.19,0000.23,-000.12,-000.02,16.9,23.0,,00.0,0647.1,31.0
2021-02-14T22:35:00Z,00000200,01000000,-000.02,0000.22,0000.39,-000.07,-000.01,0000.19,0000.43,0000.47,0000.34,16.9,23.0,,00.0,0647.1,30.9
2021-02-14T22:36:00Z,00000200,01000000,0000.08,0000.21,0000.02,0000.13,0000.26,-000.37,0000.33,0000.52,0000.33,16.9,23.0,,00.0,0647.0,31.0
2021-02-14T22:37:00Z,00000200,01000000,0000.67,0000.32,0000.08,-000.12,-000.12,0000.01,0000.43,-000.02,0000.13,17.0,23.0,,00.0,0646.9,31.0
2021-02-14T22:38:00Z,00000200,01000000,0000.19,0000.08,0000.13,-000.10,0000.22,0000.23,0000.63,0000.67,0000.49,17.1,23.1,,00.0,0646.9,31.0
2021-02-14T22:39:00Z,00000200,01000000,0001.12,0000.38,0000.13,-000.11,0000.14,-000.01,0000.24,0000.52,0000.35,17.1,23.1,,00.0,0646.9,31.0
2021-02-14T22:40:00Z,00000200,01000000,0000.75,0000.60,0000.28,-000.34,0000.27,-000.06,0000.46,0000.10,0000.10,17.2,23.2,,00.0,0646.9,31.0
2021-02-14T22:41:00Z,00000200,01000000,0000.88,0000.57,0000.06,0000.34,-000.08,0000.08,0000.23,0000.48,0000.23,17.2,23.1,,00.0,0647.0,31.0
2021-02-14T22:42:00Z,00000200,01000000,0001.53,0000.50,0000.45,0000.37,0000.06,0000.40,0000.05,0000.28,0000.38,17.2,23.1,,00.0,0646.9,31.0
2021-02-14T22:43:00Z,00000200,01000000,0000.10,0000.43,0000.34,-000.11,0000.18,-000.04,0000.58,0000.20,-000.11,17.1,23.1,,00.0,0646.9,31.0
2021-02-14T22:44:00Z,00000200,01000000,0000.10,0000.63,0000.20,-000.09,-000.00,0000.13,0000.07,0000.14,0000.26,17.1,23.1,,00.0,0647.0,31.0
2021-02-14T22:45:00Z,00000200,01000000,0000.75,0000.41,0000.35,0000.21,0000.14,0000.08,0000.35,0000.33,0000.60,17.0,23.1,,00.0,0646.9,31.0
2021-02-14T22:46:00Z,00000200,01000000,-000.05,0000.29,0000.30,-000.05,0000.15,0000.07,0000.35,0000.27,-000.12,17.0,23.0,,00.0,0646.9,31.0
2021-02-14T22:47:00Z,00000200,01000000,0000.30,0000.31,0000.14,-000.29,0000.04,0000.02,0000.33,0000.47,0000.22,16.9,23.0,,00.0,0646.9,31.0
2021-02-14T22:48:00Z,00000200,01000000,-000.08,0000.36,0000.16,0000.08,0000.06,-000.09,0000.33,0000.32,0000.31,16.9,23.0,,00.0,0646.9,31.0
2021-02-14T22:49:00Z,00000200,01000000,0000.15,0000.55,0000.38,0000.17,0000.21,0000.28,0000.47,-000.07,-000.05,16.8,23.0,,00.0,0646.8,31.0
2021-02-14T22:50:00Z,00000200,01000000,0000.38,0000.29,0000.34,0000.28,-000.00,-000.00,0000.29,0000.74,0000.79,16.8,23.0,,00.0,0646.7,30.9
2021-02-14T22:51:00Z,00000200,01000000,-000.09,0000.28,0000.26,-000.10,-000.11,0000.21,0000.45,-000.01,0000.02,16.9,23.0,,00.0,0646.7,31.0
2021-02-14T22:52:00Z,00000200,01000000,0000.82,0000.52,0000.39,-000.60,0000.31,0000.25,0000.39,0000.42,0000.58,17.0,23.0,,00.0,0646.7,31.0
2021-02-14T22:53:00Z,00000200,01000000,0000.51,0000.46,0000.28,0000.58,0000.18,-000.27,0000.36,0000.72,0000.15,17.0,23.0,,00.0,0646.6,31.0
2021-02-14T22:54:00Z,00000200,01000000,-000.07,0000.25,0000.28,-000.02,0000.10,0000.29,0000.58,-000.09,0000.33,17.1,23.1,,00.0,0646.6,31.0
2021-02-14T22:55:00Z,00000200,01000000,0000.06,0000.52,0000.57,-000.08,-000.10,0000.42,0000.59,0000.68,0000.41,17.2,23.1,,00.0,0646.6,31.0
2021-02-14T22:56:00Z,00000200,01000000,0000.34,0000.49,0000.25,-000.11,0000.14,0000.01,-000.22,0000.34,0000.00,17.3,23.2,,00.0,0646.7,31.0
2021-02-14T22:57:00Z,00000200,41000000,,,,,,,-000.43,-000.97,-000.43,17.3,23.2,,00.0,0646.7,31.0
2021-02-14T22:58:00Z,00000200,61000000,,,,,,,0000.40,0000.38,0000.31,17.1,23.3,,00.0,0645.7,31.0
2021-02-14T22:59:00Z,00000200,21000000,,,,,,,-000.16,0000.11,0000.04,17.1,23.4,,00.0,0645.7,31.0
